Location: Frankfurt am Main
(50.1109°N, 8.6821°E)
Time: 22:06:07
(UTC+01:00)

ISS - Pass Details

Date: 23 January 2020
Orbit: 415 x 423 km, 51.6° (Epoch: 25 February)

Event Time Altitude Azimuth Distance (km) Brightness Sun altitude
Rises 17:31:12 0° 189° (S) 2,367 0.6 -4.8°
Reaches altitude 10° 17:34:40 10° 151° (SSE) 1,507 -1.0 -5.3°
Maximum altitude 17:35:36 11° 135° (SE) 1,456 -1.2 -5.5°
Drops below altitude 10° 17:36:32 10° 119° (ESE) 1,509 -1.3 -5.6°
Enters shadow 17:38:28 - 93° (E) 1,903 -1.0 -5.9°
